GW2067 Weather Reports


time (UTC)temp
F
wind
direction
speed
knots
gust
knots
rain 1hr
in
rain 24hr
in
rain mn
in
humidity
%
barometer
mb
20260504173930 38 248 1.7 1.7 0.00 0.14 0.14 99 1006.3
20260504173426 37 59 0.9 1.7 0.00 0.14 0.14 99 1006.3
20260504172924 37 307 2.6 2.6 0.00 0.14 0.14 99 1006.5
20260504172420 37 335 0.9 0.9 0.00 0.14 0.14 99 1006.5
20260504171916 37 242 4.3 5.2 0.00 0.14 0.14 99 1006.7
20260504171414 37 267 0.9 1.7 0.00 0.14 0.14 99 1006.6
20260504170911 37 327 0.9 1.7 0.00 0.14 0.14 99 1006.6
20260504170407 37 254 1.7 1.7 0.00 0.14 0.14 99 1006.5
20260504160326 34 256 1.7 2.6 0.07 0.12 0.12 99 1006.9
20260504150750 37 314 1.7 1.7 0.05 0.03 0.03 96 1006.5
20260504150247 38 319 0.0 0.0 0.07 0.02 0.02 96 1006.5
20260504141217 40 227 2.6 2.6 0.00 0.00 0.00 82 1006.6
20260504140714 40 244 2.6 2.6 0.00 0.00 0.00 81 1006.8
20260504140209 40 323 1.7 1.7 0.00 0.00 0.00 80 1006.9
20260504130637 40 177 1.7 1.7 0.00 0.00 0.00 74 1006.6
20260504130134 40 311 0.0 0.9 0.00 0.00 0.00 74 1006.8
20260504110525 32 354 0.0 0.0 0.00 0.00 0.00 84 1007.0
20260504100442 23 328 0.0 0.0 0.00 0.00 0.00 98 1007.3
20260504081835 24 330 0.0 0.0 0.00 0.00 0.00 97 1007.0
20260504081332 24 328 0.0 0.9 0.00 0.00 0.00 97 1007.1
20260504080827 24 327 0.0 0.0 0.00 0.00 0.00 97 1007.0
20260504080325 24 338 0.0 0.0 0.00 0.00 0.00 96 1007.0
20260504070252 25 336 0.0 0.0 0.00 0.00 0.00 95 1007.5
20260504060213 25 340 0.0 0.0 0.00 0.00 0.00 95 1007.4
20260504050640 27 342 0.0 0.0 0.00 0.00 0.00 90 1007.7
20260504050137 28 348 0.0 0.0 0.00 0.00 0.00 89 1007.6
20260504045635 28 336 0.0 0.0 0.00 0.00 0.00 90 1007.5
20260504045134 28 324 0.0 0.0 0.00 0.00 0.00 89 1007.5
20260504044632 28 336 0.0 0.0 0.00 0.00 0.00 90 1007.5
20260504044129 28 334 0.0 0.0 0.00 0.00 0.00 90 1007.7
20260504043626 28 342 0.0 0.0 0.00 0.00 0.00 90 1007.6
20260504043123 27 328 0.0 0.0 0.00 0.00 0.00 91 1007.8
20260504042621 27 329 0.0 0.0 0.00 0.00 0.00 91 1007.6
20260504042117 28 333 0.0 0.0 0.00 0.00 0.00 91 1007.8
20260504041613 28 336 0.0 0.0 0.00 0.00 0.00 91 1007.9
20260504041109 27 336 0.0 0.0 0.00 0.00 0.00 90 1008.1
20260504040607 28 332 0.0 0.0 0.00 0.00 0.00 90 1008.0
20260504040103 27 318 0.0 0.0 0.00 0.00 0.00 90 1007.9
20260504035600 28 331 0.0 0.0 0.00 0.00 0.00 90 1007.7
20260504035056 28 339 0.0 0.0 0.00 0.00 0.00 90 1007.6
20260504034554 28 339 0.0 0.0 0.00 0.00 0.00 90 1007.6
20260504034051 28 340 0.0 0.0 0.00 0.00 0.00 90 1007.9
20260504033549 27 343 0.0 0.0 0.00 0.00 0.00 90 1007.9
20260504033046 27 338 0.0 0.0 0.00 0.00 0.00 90 1007.7
20260504032543 27 334 0.0 0.0 0.00 0.00 0.00 90 1007.9
20260504032040 26 345 0.0 0.0 0.00 0.00 0.00 89 1007.6
20260504031537 27 345 0.0 0.0 0.00 0.00 0.00 88 1007.7
20260504031033 28 345 0.0 0.0 0.00 0.00 0.00 87 1007.7
20260504030531 28 343 0.0 0.0 0.00 0.00 0.00 87 1007.7
20260504030026 29 353 0.0 0.0 0.00 0.00 0.00 85 1007.9
20260504025524 29 345 0.0 0.0 0.00 0.00 0.00 85 1007.7
20260504025020 30 335 0.0 0.0 0.00 0.00 0.00 84 1007.8
20260504024517 29 346 0.0 0.0 0.00 0.00 0.00 85 1007.8
20260504024014 30 337 0.0 0.0 0.00 0.00 0.00 84 1007.8
20260504023511 30 331 0.0 0.9 0.00 0.00 0.00 83 1007.7
20260504023007 31 333 0.0 0.0 0.00 0.00 0.00 82 1007.7
20260504022503 31 331 0.9 0.9 0.00 0.00 0.00 81 1007.9
20260504021959 32 334 0.9 0.9 0.00 0.00 0.00 79 1007.8
20260504021457 33 6 0.0 0.0 0.00 0.00 0.00 77 1007.7
20260504020954 33 1 0.0 0.0 0.00 0.00 0.00 78 1007.8
20260504020450 34 329 0.0 0.0 0.00 0.00 0.00 78 1007.8
20260504015947 35 316 0.0 0.0 0.00 0.00 0.00 72 1007.7
20260504015443 36 345 0.0 0.9 0.00 0.00 0.00 70 1007.7
20260504014939 36 11 1.7 1.7 0.00 0.00 0.00 69 1007.5
20260504014436 36 44 2.6 2.6 0.00 0.00 0.00 68 1007.6
20260504013932 36 12 0.0 0.9 0.00 0.00 0.00 67 1007.8
20260504013431 36 293 0.9 1.7 0.00 0.00 0.00 67 1007.8
20260504012927 36 313 1.7 2.6 0.00 0.00 0.00 67 1007.7
20260504012425 36 334 0.0 0.9 0.00 0.00 0.00 66 1007.7
20260504011922 36 348 0.9 1.7 0.00 0.00 0.00 66 1008.0
20260504011419 37 303 1.7 2.6 0.00 0.00 0.00 66 1007.8
20260504010915 37 336 2.6 4.3 0.00 0.00 0.00 66 1007.7
20260504010411 37 312 2.6 2.6 0.00 0.00 0.00 65 1007.9
20260504005907 37 267 2.6 2.6 0.00 0.00 0.00 65 1007.8
20260504005404 37 353 3.5 4.3 0.00 0.00 0.00 64 1007.7
20260504004903 38 273 3.5 4.3 0.00 0.00 0.00 64 1007.5
20260504004400 38 302 3.5 6.1 0.00 0.00 0.00 63 1007.6
20260504003856 38 340 2.6 2.6 0.00 0.00 0.00 63 1007.5
20260504003353 39 322 2.6 2.6 0.00 0.00 0.00 62 1007.3
20260504002849 39 263 3.5 4.3 0.00 0.00 0.00 63 1007.4
20260504002346 39 342 0.9 0.9 0.00 0.00 0.00 62 1007.4
20260504001844 39 285 1.7 1.7 0.00 0.00 0.00 62 1007.3
20260504001341 39 20 0.9 1.7 0.00 0.00 0.00 62 1007.4
20260504000837 39 238 3.5 4.3 0.00 0.00 0.00 61 1007.2
20260504000335 39 290 1.7 1.7 0.00 0.00 0.00 61 1007.3
20260503235832 39 245 4.3 9.6 0.00 0.00 0.00 60 1007.1
20260503235330 40 268 7.0 8.7 0.00 0.00 0.00 60 1007.2
20260503234827 40 302 3.5 5.2 0.00 0.00 0.00 60 1007.2
20260503234325 40 246 5.2 6.1 0.00 0.00 0.00 59 1007.1
20260503233822 40 335 2.6 2.6 0.00 0.00 0.00 59 1007.0
20260503233318 40 297 1.7 1.7 0.00 0.00 0.00 60 1006.9
20260503232814 40 287 4.3 5.2 0.00 0.00 0.00 59 1006.9
20260503232312 40 281 5.2 6.1 0.00 0.00 0.00 58 1006.9
20260503231810 41 223 6.1 7.0 0.00 0.00 0.00 58 1007.2
20260503231307 41 258 3.5 5.2 0.00 0.00 0.00 58 1007.0
20260503230802 41 276 1.7 2.6 0.00 0.00 0.00 57 1007.1
20260503230300 41 249 4.3 5.2 0.00 0.00 0.00 57 1007.1
20260503225757 41 307 4.3 5.2 0.00 0.00 0.00 58 1007.1
20260503225252 42 273 7.0 7.8 0.00 0.00 0.00 57 1007.0
20260503224749 42 304 2.6 4.3 0.00 0.00 0.00 57 1007.0
20260503224247 42 277 1.7 2.6 0.00 0.00 0.00 57 1007.0
20260503223744 42 279 4.3 4.3 0.00 0.00 0.00 56 1007.0
20260503223242 42 250 3.5 5.2 0.00 0.00 0.00 56 1007.1
20260503222738 42 302 1.7 2.6 0.00 0.00 0.00 56 1006.9
20260503222236 42 286 2.6 2.6 0.00 0.00 0.00 57 1007.0
20260503221734 43 328 4.3 5.2 0.00 0.00 0.00 56 1006.9
20260503221232 42 298 2.6 4.3 0.00 0.00 0.00 57 1006.7
20260503220728 42 286 2.6 2.6 0.00 0.00 0.00 56 1007.0
20260503220225 42 250 4.3 6.1 0.00 0.00 0.00 56 1006.9
20260503215722 42 329 7.0 8.7 0.00 0.00 0.00 55 1006.9
20260503215219 42 253 4.3 5.2 0.00 0.00 0.00 54 1006.8
20260503214717 43 325 0.9 1.7 0.00 0.00 0.00 56 1006.8
20260503214213 43 250 4.3 5.2 0.00 0.00 0.00 55 1007.0
20260503213711 43 304 4.3 5.2 0.00 0.00 0.00 55 1006.8
20260503213208 43 265 3.5 6.1 0.00 0.00 0.00 54 1007.0
20260503212705 44 303 1.7 1.7 0.00 0.00 0.00 54 1006.8
20260503212203 45 222 3.5 5.2 0.00 0.00 0.00 52 1006.8
20260503211700 44 286 4.3 6.1 0.00 0.00 0.00 53 1007.2
20260503211156 43 357 4.3 6.1 0.00 0.00 0.00 53 1007.2
20260503210652 44 347 3.5 6.1 0.00 0.00 0.00 56 1006.9
20260503210149 44 346 3.5 4.3 0.00 0.00 0.00 56 1007.3
20260503205644 44 336 2.6 4.3 0.00 0.00 0.00 55 1007.0
20260503205141 44 269 6.1 7.8 0.00 0.00 0.00 54 1007.1
20260503204637 44 304 3.5 5.2 0.00 0.00 0.00 54 1007.0
20260503204135 44 252 6.1 7.0 0.00 0.00 0.00 55 1007.1
20260503203632 44 273 3.5 5.2 0.00 0.00 0.00 55 1007.1
20260503203130 44 342 4.3 7.0 0.00 0.00 0.00 56 1007.2
20260503202627 44 348 4.3 6.1 0.00 0.00 0.00 55 1007.3
20260503202125 44 278 2.6 2.6 0.00 0.00 0.00 55 1007.2
20260503201623 44 246 4.3 6.1 0.00 0.00 0.00 55 1007.3
20260503201120 44 264 5.2 7.0 0.00 0.00 0.00 55 1007.4
20260503200616 44 318 4.3 5.2 0.00 0.00 0.00 56 1007.2
20260503200113 44 308 5.2 6.1 0.00 0.00 0.00 56 1007.4
20260503195610 44 333 1.7 1.7 0.00 0.00 0.00 56 1007.6
20260503195106 44 278 4.3 6.1 0.00 0.00 0.00 56 1007.2
20260503194603 44 256 6.1 7.8 0.00 0.00 0.00 56 1007.3
20260503194058 44 336 2.6 4.3 0.00 0.00 0.00 55 1007.7
20260503193555 45 275 2.6 2.6 0.00 0.00 0.00 55 1007.5
20260503193050 45 312 2.6 4.3 0.00 0.00 0.00 56 1007.2
20260503192547 45 274 2.6 4.3 0.00 0.00 0.00 54 1007.5
20260503192043 46 266 7.0 9.6 0.00 0.00 0.00 53 1007.3
20260503191540 46 318 4.3 5.2 0.00 0.00 0.00 51 1007.4
20260503191037 48 273 4.3 5.2 0.00 0.00 0.00 49 1007.3
20260503190533 48 201 6.1 7.0 0.00 0.00 0.00 47 1007.2
20260503190030 49 334 3.5 4.3 0.00 0.00 0.00 49 1007.3
20260503185526 48 223 5.2 6.1 0.00 0.00 0.00 48 1007.1
20260503185021 48 311 5.2 7.8 0.00 0.00 0.00 48 1006.7
20260503184517 47 271 0.9 2.6 0.00 0.00 0.00 50 1007.1
20260503184014 49 279 3.5 6.1 0.00 0.00 0.00 47 1007.1
20260503183511 49 317 2.6 4.3 0.00 0.00 0.00 48 1007.1
20260503183008 48 352 7.0 7.8 0.00 0.00 0.00 47 1007.0
20260503182507 46 261 6.1 8.7 0.00 0.00 0.00 50 1007.2
20260503182004 47 308 7.8 8.7 0.00 0.00 0.00 49 1007.2
20260503181500 46 246 4.3 6.1 0.00 0.00 0.00 49 1007.0
20260503180956 48 292 4.3 7.0 0.00 0.00 0.00 49 1007.2
20260503180455 48 188 5.2 7.0 0.00 0.00 0.00 48 1007.6
20260503175951 48 278 2.6 4.3 0.00 0.00 0.00 53 1007.5
20260503175449 46 318 3.5 5.2 0.00 0.00 0.00 52 1007.5
20260503174945 48 325 10.4 14.8 0.00 0.00 0.00 49 1007.5
20260503174443 49 329 5.2 7.0 0.00 0.00 0.00 49 1007.4